Home   Weather   Antofagasta   Past weeks

Flag for Chile Past Weather in Antofagasta, Chile — Yesterday and Last 2 Weeks

Now
59 °F

Passing clouds.


Feels Like: 58 °F
Forecast: N/A
Wind: 7 mph from South

Location: Antofagasta Airport

Current Time: Aug 31, 2016 at 8:47:02 PM

Latest Report: Aug 31, 2016 at 8:00 PM


Visibility: N/A

Pressure: 30.07 "Hg

Humidity: 77%

Dew Point: 52 °F

Location of AntofagastaLocation

Past Weather in Antofagasta — Graph

°F

Antofagasta Temperature Yesterday

Maximum temperature yesterday: 61 °F (at 2:00 PM)
Minimum temperature yesterday: 55 °F (at 1:00 AM)
Average temperature yesterday: 58 °F

High & Low Weather Summary for the Past Weeks

 TemperatureHumidityPressure
High68 °F (Aug 31, 2:00 PM)94% (Aug 30, 4:00 AM)30.18 "Hg (Aug 30, 4:00 AM)
Low52 °F (Aug 23, 8:00 AM)48% (Aug 29, 11:00 AM)29.83 "Hg (Aug 21, 6:00 AM)
Average59 °F73%30.01 "Hg
* Reported Aug 16 7:00 PM — Aug 31 7:00 PM, Antofagasta, Weather by CustomWeather, © 2016

Note: Actual official high and low records may vary slightly from our data, if they occured in-between our weather recording intervals... More about our weather records

Advertising

Antofagasta Weather History for the Previous 24 Hours

Scroll right to see more
 ConditionsComfort  
Time TempWeatherWind HumidityBarometerVisibility
7:00 PM
Wed, Aug 31
59 °FPartly sunny.9 mph77%30.04 "HgN/A
6:00 PM61 °FPartly sunny.9 mph72%30.04 "HgN/A
5:00 PM61 °FScattered clouds.13 mph72%30.04 "HgN/A
4:00 PM61 °FPartly sunny.12 mph72%30.04 "HgN/A
3:00 PM63 °FPartly sunny.13 mph68%30.07 "HgN/A
2:00 PM68 °FScattered clouds.8 mph49%30.09 "HgN/A
1:00 PM66 °FScattered clouds.13 mph49%30.09 "HgN/A
12:00 PM64 °FScattered clouds.9 mph52%30.09 "HgN/A
11:00 AM63 °FPartly sunny.10 mph56%30.09 "HgN/A
10:00 AM61 °FPartly sunny.8 mph63%30.09 "HgN/A
9:00 AM61 °FPartly sunny.9 mph63%30.07 "HgN/A
8:00 AM61 °FPartly sunny.9 mph63%30.04 "HgN/A
7:00 AM59 °FOvercast.9 mph68%30.04 "HgN/A
6:00 AM61 °FOvercast.12 mph63%30.01 "HgN/A
4:00 AM59 °FOvercast.12 mph68%30.01 "HgN/A
3:00 AM59 °FOvercast.14 mph72%30.04 "HgN/A
2:00 AM59 °FPassing clouds.13 mph72%30.04 "HgN/A
1:00 AM61 °FPassing clouds.6 mph68%30.01 "HgN/A
12:00 AM59 °FPassing clouds.8 mph77%30.01 "HgN/A
11:00 PM
Tue, Aug 30
57 °FPassing clouds.5 mph77%29.98 "HgN/A
10:00 PM59 °FPassing clouds.6 mph77%29.98 "HgN/A
9:00 PM59 °FPassing clouds.3 mph82%29.95 "HgN/A
8:00 PM57 °FPassing clouds.8 mph88%29.95 "HgN/A
Weather by CustomWeather, © 2016

See weather overviewHow to use our weather pages